Location: Arpaise
(41.0333°N, 14.7333°E)
Time: 00:51:53
(UTC+00:00)

Cosmos 1500 Rocket - Pass Details

Date: 05 July 2020
Orbit: 603 x 632 km, 82.5° (Epoch: 11 August)

Event Time Altitude Azimuth Distance (km) Brightness Sun altitude
Exits shadow 23:44:49 46° 298° (WNW) 838 4.2 -25.7°
Drops below altitude 10° 23:48:43 10° 356° (N) 1,991 7.1 -25.5°
Sets 23:51:00 0° 2° (N) 2,896 8.3 -25.4°
